Regional Weather Roundup
Issued by NWS

Home | Current Version | Previous Version | Graphics & Text | Print | Product List | Glossary On
Versions: 1 2 3 4 5 6 7 8 9 10 11 12 13 14 15 16 17 18 19 20 21 22 23 24 25 26 27 28 29 30 31 32 33 34 35 36 37 38 39 40 41 42 43 44 45 46 47 48 49 50
000
ASUS43 KMKX 050800
RWRWI

WISCONSIN REGIONAL WEATHER ROUNDUP
NATIONAL WEATHER SERVICE MILWAUKEE/SULLIVAN WI
300 AM CDT THU MAY 05 2016

NOTE: "FAIR" INDICATES FEW OR NO CLOUDS BELOW 12,000 FEET WITH NO
SIGNIFICANT WEATHER AND/OR OBSTRUCTIONS TO VISIBILITY.

WIZ001-002-006>008-014>016-023>028-050900-
NORTHWEST WISCONSIN

CITY           SKY/WX    TMP DP  RH WIND       PRES   REMARKS
SUPERIOR ARPT  MOCLDY    31  31 100 CALM      30.02F
ASHLAND        CLEAR     28  28 100 CALM      30.02F
HAYWARD        CLEAR     30  26  85 CALM      30.01S
SIREN          CLEAR     34  26  74 CALM      30.02S
CUMBERLAND     CLEAR     36  28  75 CALM      30.01S
RICE LAKE      CLEAR     35  31  88 CALM      30.03R
CHETEK         CLEAR     33  31  89 CALM      30.02R
LADYSMITH      CLEAR     32  30  93 CALM      30.02R
EAU CLAIRE     NOT AVBL
MENOMONIE      CLEAR     38  29  72 CALM      30.02R
NEW RICHMOND   CLEAR     38  30  73 CALM      30.02S
OSCEOLA        CLEAR     38  32  79 CALM      30.05R
$$

WIZ003>005-009-010-017-018-050900-
NORTH CENTRAL WISCONSIN

CITY           SKY/WX    TMP DP  RH WIND       PRES   REMARKS
MANITOWISH WTR CLEAR     28  28 100 CALM      29.99S FOG
ARBOR VITAE    CLEAR     32  29  89 CALM      29.98F
WOODRUFF       CLEAR     32  29  89 CALM      29.98F
RHINELANDER    CLEAR     30  27  88 CALM      29.98F
EAGLE RIVER    CLEAR     28  28 100 CALM      29.97F FOG
LAND O LAKES   CLEAR     27  26  98 CALM      29.99F
PHILLIPS       CLEAR     29  29  97 CALM      29.99S
TOMAHAWK       CLEAR     28  27  96 CALM      29.99S
MEDFORD        CLEAR     35  30  83 N6        29.98S WCI  30
MERRILL        CLEAR     32  31  95 CALM      30.00R
$$

WIZ029-030-035-036-043>047-050900-
CENTRAL WISCONSIN

CITY           SKY/WX    TMP DP  RH WIND       PRES   REMARKS
WAUSAU         CLEAR     38  31  76 CALM      29.98R
MOSINEE        CLEAR     36  32  87 E5        29.99S WCI  32
MARSHFIELD     CLEAR     41  31  67 NE7       29.97S
STEVENS POINT  CLEAR     32  29  90 CALM      29.99S
WAUPACA        CLEAR     40  32  74 N5        29.99R
WAUTOMA        CLEAR     36  31  82 N3        29.99R
WISC RAPIDS    CLEAR     39  30  70 NE5       30.00S
CAMP DOUGLAS   NOT AVBL
$$

WIZ011>013-019>022-031-037>040-048>050-050900-
NORTHEAST WISCONSIN

CITY           SKY/WX    TMP DP  RH WIND       PRES   REMARKS
ANTIGO         CLEAR     34  31  89 CALM      29.98S
SHAWANO        CLEAR     38  32  78 N3        29.98S
OCONTO         CLEAR     35  32  88 NW3       29.97S
STURGEON BAY   CLEAR     37  32  81 N12       29.97F WCI  30
GREEN BAY      CLEAR     36  31  82 N7        29.96F WCI  30
MANITOWOC      NOT AVBL
APPLETON       PTCLDY    36  30  80 N7        29.94F WCI  30
CLINTONVILLE   CLEAR     37  32  81 N3        29.98S
OSHKOSH        CLEAR     36  30  79 N6        29.96S WCI  31
$$

WIZ032>034-041-042-053>061-050900-
SOUTHWEST WISCONSIN

CITY           SKY/WX    TMP DP  RH WIND       PRES   REMARKS
LA CROSSE      CLEAR     44  31  60 CALM      29.99S
SPARTA         CLEAR     32  29  90 CALM      30.00S
VIROQUA        CLEAR     39  32  75 CALM      29.98S
BOSCOBEL       CLEAR     37  33  85 CALM      29.98S
PRAIRIE DU CHI CLEAR     40  32  73 CALM      29.98S HAZE
PLATTEVILLE    CLEAR     40  34  77 NE6       29.95F
$$

WIZ056-057-062-063-064-067-068-050900-
SOUTH CENTRAL WISCONSIN

CITY           SKY/WX    TMP DP  RH WIND       PRES   REMARKS
REEDSBURG      CLEAR     41  32  70 N6        29.97S
BARABOO/DELLS  CLEAR     40  32  71 NE3       29.97S
LONE ROCK      NOT AVBL
MINERAL POINT  CLEAR     43  32  65 N10       29.95F
MADISON        CLEAR     37  31  78 N7        29.96S WCI  32
MIDDLETON      CLEAR     39  34  83 N5        29.97S
WATERTOWN      CLEAR     37  33  86 N3        29.94S
MONROE         CLEAR     39  34  81 N14       29.94S WCI  31
JANESVILLE     CLEAR     43  34  70 NE8       29.93S
$$

WIZ051-052-058>065-066-070>072-050900-
SOUTHEAST WISCONSIN

CITY           SKY/WX    TMP DP  RH WIND       PRES   REMARKS
MILWAUKEE      CLOUDY    42  33  70 N13G24    29.91F
WAUKESHA       PTCLDY    36  32  87 N7        29.94S WCI  30
MILWAUKEE/TIMM CLOUDY    39  30  70 N9        29.93F WCI  33
RACINE         CLOUDY    42  33  70 N17G28    29.92S
BURLINGTON     CLOUDY    37  33  84 N5        29.92S WCI  34
KENOSHA        CLOUDY    42  32  67 N14       29.91S
FOND DU LAC    CLEAR     41  33  73 NE16      29.96S
SHEBOYGAN      CLOUDY    38  31  76 N10       29.93F WCI  31
WEST BEND      CLEAR     37  32  81 N6        29.94S WCI  33
JUNEAU         CLEAR     37  33  82 N8        29.95S WCI  31
$$

LSZ147-162-050900-
LAKE SUPERIOR

STATION/POSITION TIME  TEMP    WIND        PRES    WAVE
                       AIR SEA DIR/SP/G            HT/PER
                 (UTC) (F)     (DEG/KT/KT) (MB)    (FT/S)
W MID LAKE BUOY  0650   36 36  350/  4/  6 1017.4S   1/ 5
DEVILS ISLAND    0700   39      70/  4/  4 1017.6R
PORT WING        0540   35     130/  2/  4 1016.6R
SAXON HARBOR     0700   31     210/  3/  4 1016.3R
$$

LMZ867-665-643>646-050900-
LAKE MICHIGAN

STATION/POSITION TIME  TEMP    WIND        PRES    WAVE
                       AIR SEA DIR/SP/G            HT/PER
                 (UTC) (F)     (DEG/KT/KT) (MB)    (FT/S)
CHAMBERS ISLAND  0700   40     340/ 12/ 15 1014.6S
N MID LAKE BUOY  0650   38 38  340/ 14/ 16 1013.9R   2/ 4
NORTHPORT PIER   0723   40     340/ 12/ 17 1014.2F
ALGOMA LAKESHORE 0715          340/ 10/ 13   N/A
KEWAUNEE LAKESHO 0700   39     350/  8/ 13 1013.5F
SHEBOYGAN LAKESH 0700   41     350/ 18/ 21 1014.3F
PORT WASHINGTON  0740   41     350/  4/ 13 1014.2F
S MID LAKE BUOY  0650   40 40   20/ 23/ 27 1011.1R   9/ 8
KENOSHA   LAKESH 0700   43     360/ 24/ 30 1012.5R
$$

TC  - TEMPERATURE IN CELSIUS
VSB - VISIBILITY IN STATUTE MILES
WCI - WIND CHILL INDEX
HX  - HEAT INDEX




USA.gov is the U.S. government's official web portal to all federal, state and local government web resources and services.